Вернуться в каталог

CZ-4 DEB

АктивенPO
NORAD 26134·DEBRIS·🇨🇳 China

Запущен Oct 14, 1999 с Taiyuan Satellite Launch Center

Loading…

Ближайшие Пролёты (ближайшие 24 часа)

TLE

СвежийSource: Space-Track

Эпоха: Sep 14, 2026, 21:03 UTC

1 26134U 99057W   26257.87746248  .00000543  00000-0  38275-3 0  9994
2 26134  98.9858  49.7836 0417779  94.7986  64.8712 13.66432732313338

Отслеживайте CZ-4 DEB в реальном времени с AllMySat

Download on the App Store